Temp
4 4 4 4 4 5 5 5 5 4 4 5 5 7 7 7 8 8 8 8 8 8 8 9 9 10 11 11 11 11 12 11 11 11 11 10 10 11
4 4 4 4 4 4 4 4 4 4 4 4 6 6 7 6 7 7 7 7 7 7 7 8 9 9 9 10 11 11 10 10 11 10 11 10 11 11
3 3 4 4 4 4 4 4 4 4 4 5 4 6 6 6 6 6 6 6 6 7 7 7 8 8 9 9 10 10 10 10 11 10 10 10 11 11
2 3 3 3 3 4 4 4 4 4 4 4 5 6 6 6 6 6 6 6 7 7 7 7 7 7 8 9 10 10 10 10 10 9 10 10 10 10
1 1 2 2 3 3 3 3 4 3 4 4 4 5 7 7 7 6 6 6 7 7 7 7 8 7 7 9 9 10 10 10 10 9 9 10 10 10
3 1 2 1 1 2 3 3 3 3 3 4 4 5 6 7 7 6 7 6 6 7 7 7 7 8 7 8 9 9 10 10 10 10 10 10 10 10
3 1 -0 1 1 1 1 2 2 3 3 3 4 4 4 5 6 7 6 7 7 6 7 7 7 7 7 7 8 9 10 11 11 11 10 9 10 10
1 -1 0 1 1 1 1 1 2 2 3 3 4 4 5 5 5 5 6 7 6 7 6 7 7 6 7 7 7 8 8 9 9 9 9 9 9 9
-1 -2 0 1 0 0 0 1 1 2 2 3 3 3 4 4 5 5 5 5 6 6 6 7 7 7 7 7 7 8 8 9 9 8 8 8 9 9
-1 -2 -1 0 0 0 1 1 1 1 2 2 3 3 3 3 4 3 4 4 5 5 5 6 6 6 7 7 7 7 7 7 7 7 8 8 8 8
2 -1 -1 -0 -0 -0 -0 1 1 1 1 1 2 2 3 3 3 4 4 4 4 5 5 5 6 5 5 6 7 7 7 7 7 7 7 7 7 7
1 0 -2 -2 -1 -0 -1 -0 0 1 1 1 1 1 2 2 3 3 3 4 3 3 4 4 5 5 5 5 5 5 6 6 6 6 6 6 6 6
1 1 -0 -1 -0 -1 -1 -1 -2 -1 -0 -0 1 1 1 1 1 2 2 2 3 3 2 3 3 4 4 4 4 4 4 4 5 4 5 6 7 6
1 0 -0 -1 -1 -1 -1 -2 -1 -2 -2 -1 -1 -1 -0 -0 -0 -0 0 0 0 1 1 1 1 1 2 2 2 3 3 3 4 3 3 4 4 4
0 -0 -1 -1 -2 -2 -2 -2 -1 -2 -2 -3 -3 -3 -2 -2 -1 -1 -1 -1 -1 -1 -1 -1 -0 -0 -0 -1 -1 0 1 1 1 1 2 2 2 3
0 -0 -1 -1 -2 -3 -3 -3 -3 -3 -2 -2 -3 -3 -3 -3 -2 -2 -2 -2 -2 -3 -3 -4 -3 -2 -2 -1 -1 -2 -2 -2 -1 -0 1 1 1 1
-1 -1 -1 -2 -2 -3 -3 -4 -4 -4 -4 -3 -3 -3 -4 -5 -3 -3 -3 -3 -5 -4 -4 -3 -3 -3 -2 -2 -2 -2 -2 -2 -2 -2 -2 -1 -1 -1
-1 -1 -2 -2 -3 -4 -4 -4 -5 -4 -4 -4 -4 -4 -4 -5 -5 -6 -6 -6 -7 -7 -6 -6 -4 -3 -4 -4 -3 -3 -4 -4 -4 -3 -3 -3 -2 -2
-2 -2 -2 -3 -3 -4 -4 -5 -4 -5 -5 -5 -5 -5 -5 -5 -6 -7 -7 -7 -7 -7 -7 -7 -7 -7 -7 -7 -6 -5 -5 -5 -5 -4 -5 -5 -3 -2
-2 -3 -3 -3 -4 -4 -4 -5 -5 -5 -5 -5 -5 -5 -6 -6 -6 -8 -8 -8 -8 -8 -8 -7 -7 -7 -8 -8 -7 -6 -7 -6 -6 -5 -5 -5 -4 -3
-2 -3 -4 -4 -5 -5 -5 -5 -6 -6 -6 -6 -6 -6 -6 -6 -7 -7 -8 -8 -8 -8 -8 -8 -8 -8 -8 -8 -8 -7 -7 -8 -7 -6 -6 -5 -4 -4
-3 -4 -5 -5 -5 -6 -5 -5 -6 -7 -7 -7 -7 -7 -7 -7 -8 -8 -8 -8 -8 -8 -8 -8 -8 -8 -8 -8 -8 -8 -7 -6 -6 -5 -5 -5 -6 -5
-3 -4 -5 -5 -6 -6 -6 -6 -6 -7 -7 -7 -7 -7 -7 -7 -7 -8 -8 -8 -8 -8 -8 -8 -8 -8 -8 -8 -8 -8 -7 -6 -5 -5 -6 -6 -6 -6
Height
1444 1443 1441 1440 1439 1438 1437 1437 1436 1432 1429 1424 1423 1422 1421 1419 1417 1416 1414 1412 1410 1408 1406 1409 1409 1410 1410 1411 1413 1416 1419 1423 1431 1438 1444 1446 1450 1454
1440 1439 1437 1437 1435 1434 1432 1431 1430 1429 1424 1421 1418 1416 1414 1412 1410 1407 1405 1403 1402 1400 1397 1398 1398 1399 1401 1402 1398 1407 1411 1414 1424 1428 1434 1438 1441 1446
1434 1434 1433 1432 1430 1428 1427 1426 1424 1423 1418 1413 1412 1409 1407 1404 1402 1399 1398 1396 1393 1391 1388 1388 1389 1389 1390 1392 1396 1401 1408 1412 1411 1420 1425 1429 1432 1436
1429 1428 1426 1424 1423 1423 1421 1420 1418 1417 1415 1409 1404 1402 1399 1398 1395 1392 1389 1388 1385 1383 1381 1380 1383 1382 1380 1383 1388 1394 1397 1404 1404 1411 1416 1422 1424 1428
1423 1421 1420 1418 1416 1414 1413 1412 1411 1409 1408 1404 1398 1396 1392 1391 1389 1385 1382 1378 1377 1376 1376 1375 1375 1371 1371 1375 1380 1385 1390 1394 1398 1404 1408 1412 1415 1418
1416 1415 1413 1413 1411 1408 1407 1405 1404 1402 1401 1398 1395 1391 1388 1385 1383 1379 1376 1373 1369 1368 1367 1368 1365 1366 1365 1369 1373 1377 1383 1387 1392 1395 1399 1404 1407 1411
1410 1408 1407 1406 1405 1403 1401 1400 1399 1397 1394 1392 1389 1387 1383 1380 1377 1375 1371 1369 1366 1365 1363 1363 1363 1364 1362 1363 1367 1372 1377 1380 1384 1387 1390 1394 1397 1402
1404 1402 1402 1400 1398 1395 1394 1394 1393 1392 1389 1387 1384 1382 1379 1377 1374 1372 1369 1366 1363 1364 1361 1361 1361 1360 1361 1362 1364 1368 1371 1373 1376 1379 1383 1386 1390 1393
1401 1398 1396 1395 1393 1389 1387 1387 1386 1386 1384 1383 1380 1377 1374 1374 1371 1367 1366 1365 1362 1361 1359 1358 1358 1357 1359 1359 1361 1364 1366 1368 1371 1374 1376 1379 1382 1385
1397 1394 1393 1390 1388 1385 1382 1380 1379 1378 1377 1377 1374 1373 1371 1368 1367 1365 1362 1360 1359 1358 1356 1355 1355 1355 1357 1359 1359 1360 1362 1364 1366 1368 1370 1373 1375 1376
1392 1391 1387 1386 1383 1381 1377 1374 1373 1372 1370 1369 1367 1366 1365 1364 1362 1361 1359 1357 1355 1354 1354 1353 1353 1354 1354 1353 1355 1357 1358 1360 1361 1362 1364 1366 1367 1369
1387 1385 1385 1380 1378 1376 1373 1370 1367 1366 1363 1362 1360 1359 1359 1358 1357 1356 1354 1352 1352 1350 1348 1349 1348 1349 1350 1349 1350 1351 1352 1352 1353 1355 1356 1359 1360 1363
1382 1380 1379 1376 1373 1371 1369 1365 1363 1361 1359 1356 1354 1352 1352 1351 1350 1349 1349 1347 1346 1345 1345 1344 1343 1343 1343 1343 1343 1344 1344 1345 1346 1348 1349 1351 1353 1356
1378 1376 1374 1371 1370 1366 1365 1363 1358 1357 1355 1352 1350 1348 1346 1345 1345 1344 1343 1342 1341 1340 1339 1339 1338 1339 1338 1337 1338 1338 1338 1339 1340 1342 1343 1344 1345 1347
1373 1371 1368 1366 1365 1362 1360 1358 1355 1354 1351 1349 1346 1345 1343 1341 1340 1339 1339 1337 1337 1337 1336 1335 1334 1334 1334 1334 1334 1334 1334 1334 1335 1336 1337 1338 1340 1341
1367 1365 1363 1361 1360 1358 1356 1354 1351 1350 1347 1345 1343 1341 1340 1338 1336 1335 1334 1334 1333 1333 1332 1332 1332 1331 1331 1331 1331 1331 1331 1332 1330 1330 1331 1332 1332 1332
1361 1359 1358 1356 1354 1353 1352 1350 1348 1345 1344 1341 1340 1338 1337 1336 1334 1332 1331 1330 1330 1329 1330 1329 1329 1328 1328 1327 1327 1327 1328 1327 1327 1327 1326 1326 1326 1326
1355 1353 1352 1351 1349 1348 1347 1346 1344 1342 1340 1339 1337 1336 1334 1334 1333 1331 1329 1329 1328 1328 1327 1327 1325 1325 1326 1325 1325 1325 1325 1325 1325 1324 1323 1321 1321 1322
1349 1347 1346 1345 1344 1343 1343 1342 1339 1339 1337 1336 1335 1334 1332 1331 1331 1329 1329 1326 1328 1327 1326 1325 1325 1324 1324 1325 1325 1323 1323 1323 1322 1321 1320 1319 1317 1318
1342 1342 1341 1340 1339 1338 1338 1337 1336 1335 1334 1334 1332 1331 1330 1329 1328 1328 1327 1327 1324 1326 1324 1324 1324 1323 1324 1324 1323 1322 1321 1320 1319 1318 1317 1316 1315 1314
1336 1335 1335 1334 1334 1333 1333 1332 1332 1332 1331 1330 1330 1328 1327 1327 1325 1325 1326 1325 1324 1323 1323 1322 1323 1322 1321 1321 1320 1319 1318 1316 1315 1314 1313 1313 1312 1311
1327 1327 1327 1327 1327 1328 1328 1328 1328 1328 1328 1328 1327 1326 1325 1324 1324 1323 1323 1323 1322 1321 1320 1320 1320 1319 1318 1318 1318 1316 1313 1312 1312 1311 1311 1311 1311 1310
1319 1320 1320 1319 1320 1321 1322 1323 1323 1324 1324 1324 1324 1324 1323 1323 1322 1321 1321 1320 1319 1319 1317 1317 1317 1316 1316 1315 1314 1312 1311 1310 1309 1309 1308 1308 1308 1307
Wind_Speed
19 21 22 22 21 21 22 23 25 28 28 34 32 31 31 32 32 32 35 39 40 44 39 35 38 37 41 47 45 49 38 40 37 39 35 39 36 35
18 20 21 22 22 23 22 24 25 28 31 31 34 32 31 31 31 31 32 33 37 36 33 36 37 33 36 37 35 36 43 33 33 42 41 33 23 40
19 23 23 22 23 23 24 26 25 26 30 36 32 32 32 31 31 30 30 31 35 34 31 32 32 30 32 34 37 35 35 36 37 43 41 38 32 33
22 24 25 27 28 27 26 25 25 26 30 33 34 30 29 30 30 32 32 31 31 31 28 29 41 33 28 32 34 35 35 37 35 35 35 35 34 38
24 24 24 24 26 25 26 27 29 26 24 26 31 29 27 26 27 29 30 28 28 26 23 24 33 35 20 25 31 36 35 33 35 36 39 35 35 35
24 23 24 24 25 26 25 24 24 24 23 26 27 28 26 25 27 30 27 27 25 23 21 23 19 28 19 19 20 28 36 39 37 35 34 35 36 37
23 22 22 22 23 25 25 26 23 21 23 24 26 27 27 24 24 26 27 25 23 17 18 20 17 16 19 12 16 20 25 29 31 31 32 33 33 34
21 20 19 21 21 22 24 21 21 24 26 25 26 25 27 25 24 22 22 21 24 17 12 15 15 20 16 15 16 19 19 19 23 26 29 30 31 32
20 19 18 19 18 17 19 22 23 22 23 24 27 26 26 25 26 24 20 15 16 19 18 15 10 6 9 14 16 17 16 17 20 22 24 27 29 31
19 18 19 19 19 20 20 20 21 20 22 24 26 27 26 25 23 21 21 21 19 19 18 18 15 12 10 9 11 14 15 16 18 19 20 21 23 24
20 18 17 20 20 21 20 19 20 19 20 21 22 24 25 25 25 23 21 20 21 20 17 18 18 17 17 18 17 17 16 17 18 21 22 22 23 24
20 18 18 18 22 21 21 20 20 17 17 20 20 21 23 23 22 21 21 22 21 21 20 18 19 17 12 18 22 25 24 25 23 22 24 25 25 26
21 20 20 20 19 18 18 16 17 19 17 17 18 19 19 20 19 19 19 19 19 19 19 15 15 15 18 19 19 16 17 18 20 21 22 23 24 26
19 19 20 20 20 18 18 16 15 17 17 16 15 15 15 15 15 15 14 15 15 15 16 15 13 12 14 16 16 17 18 18 21 21 20 22 23 24
20 19 19 19 19 18 18 18 17 16 16 15 14 13 13 13 13 14 13 13 13 13 12 12 13 14 13 13 15 15 16 17 18 19 20 21 22 24
21 19 18 19 18 17 17 18 16 16 16 15 13 12 11 11 10 9 9 9 8 9 10 10 9 11 12 13 15 16 15 11 9 11 15 17 19 19
23 20 18 17 16 16 17 18 17 15 14 13 12 11 10 10 9 8 8 7 6 7 8 7 8 9 10 11 11 13 14 15 15 16 16 17 17 18
23 20 18 17 16 17 16 16 16 15 12 11 9 9 9 9 8 6 5 5 5 6 7 9 10 8 6 3 5 6 7 9 8 10 12 16 15 12
22 21 19 17 16 16 17 16 14 14 11 9 9 9 8 7 7 6 6 4 5 6 6 7 8 8 7 8 7 6 7 7 14 12 11 13 14 9
23 21 19 16 16 15 16 15 14 12 11 10 9 9 8 7 6 6 5 5 4 7 6 6 5 6 9 8 10 10 8 10 11 12 9 8 9 8
23 24 21 19 18 17 15 15 13 11 10 10 10 9 8 8 6 5 5 4 5 6 7 7 8 8 9 10 10 11 13 13 10 9 8 9 6 2
25 25 23 22 19 16 15 15 13 13 11 10 9 7 6 6 6 5 5 5 5 6 7 7 7 7 6 8 11 15 13 4 5 7 7 7 7 4
27 24 22 21 20 16 16 16 13 12 11 9 7 6 5 5 6 7 6 6 6 6 7 7 6 5 6 8 13 13 9 7 4 3 5 5 5 10
Wind_Direction
285 287 285 283 281 280 279 281 284 289 292 298 300 305 305 304 297 290 283 284 286 286 288 263 268 266 253 251 244 238 223 219 224 239 240 234 240 246
270 282 285 288 284 281 282 281 280 282 285 288 296 301 306 305 304 299 294 290 287 290 288 275 274 263 260 254 245 238 234 230 245 243 242 243 270 247
271 266 274 276 278 280 278 281 277 280 285 291 293 299 303 307 316 304 296 288 285 281 285 273 274 267 258 251 241 238 242 239 232 244 244 249 244 245
285 278 275 272 265 264 267 274 275 277 283 285 290 297 303 312 310 317 297 291 288 287 286 267 275 284 250 243 245 246 248 242 234 235 235 239 242 239
285 285 285 285 280 277 270 272 271 282 285 288 289 297 304 311 314 309 312 302 286 290 280 280 266 278 263 237 240 245 246 246 239 237 242 244 247 245
292 289 287 287 287 279 281 276 278 282 288 290 292 296 303 312 308 308 314 317 301 286 284 280 291 274 283 242 243 248 242 243 249 245 241 242 246 247
299 302 305 301 288 276 274 276 281 280 283 290 294 300 302 307 308 315 308 319 316 294 294 277 289 277 273 257 254 252 246 243 246 247 245 246 247 248
306 304 310 308 308 297 265 267 269 276 278 284 289 294 299 298 301 301 313 307 306 309 298 295 290 275 269 265 267 260 250 247 245 247 245 244 244 246
303 304 302 302 304 290 278 269 268 270 271 278 282 289 292 294 298 300 294 302 295 294 298 298 298 288 255 253 252 253 251 246 241 240 241 242 244 247
303 298 300 300 301 296 296 294 287 281 273 274 278 282 284 290 294 296 294 289 289 288 291 295 293 298 273 264 254 248 244 244 249 251 251 251 252 254
305 297 294 298 300 301 303 300 296 295 286 279 275 279 281 282 286 291 290 288 288 283 281 280 287 283 268 267 264 260 260 250 254 257 254 258 262 262
309 303 291 289 294 302 302 303 300 294 284 281 278 277 278 280 282 283 284 283 286 292 282 270 273 271 269 266 258 262 258 259 256 258 254 258 262 262
313 308 303 302 300 305 305 305 303 300 294 288 281 277 276 277 278 277 277 277 274 269 270 269 269 264 259 261 269 263 252 257 262 258 258 259 269 269
315 310 306 304 305 304 305 305 302 297 296 294 289 284 280 280 282 283 280 279 275 271 267 261 261 263 263 265 261 264 259 257 255 256 261 262 261 261
314 311 310 308 302 302 301 303 307 302 301 294 291 290 289 286 285 285 283 277 274 272 271 270 268 263 263 269 273 271 267 265 263 262 263 264 263 264
302 304 306 306 301 301 302 301 302 300 301 302 300 298 292 288 289 289 285 281 276 279 286 287 282 275 272 269 267 266 265 265 266 266 264 260 260 259
295 296 298 299 298 300 300 296 296 296 296 300 296 302 305 307 306 304 303 303 308 304 300 291 291 285 281 280 280 276 275 273 271 275 272 270 262 260
286 291 293 293 293 295 293 293 291 293 296 292 294 297 300 304 309 317 315 329 327 325 330 325 319 317 311 285 290 282 287 297 295 293 294 292 285 275
280 287 289 288 290 292 294 293 288 291 290 287 289 293 299 303 303 308 314 320 326 329 326 329 342 341 335 331 306 296 297 287 301 297 297 301 299 299
278 280 282 284 289 293 294 290 283 282 286 291 289 289 291 293 295 299 304 312 323 314 318 323 315 314 314 302 293 287 299 305 300 299 313 301 307 302
279 275 276 275 275 281 289 285 279 274 276 280 285 289 292 292 291 292 288 286 293 303 308 307 302 297 299 304 300 305 299 290 289 301 314 319 334 358
277 274 276 276 266 269 277 276 267 259 259 266 273 280 283 281 276 276 274 283 289 295 300 303 302 295 294 299 297 300 307 317 291 294 295 304 312 316
275 273 276 272 263 260 269 271 261 249 248 256 264 260 268 274 276 273 269 274 291 298 305 311 311 291 289 295 299 303 309 320 329 287 272 287 299 312